Location: Newark
(13.6797°N, 8.5297°E)
Time: 00:31:08
(UTC+00:00)

SR - Pass Details

Date: 03 February 2020
Orbit: 575 x 880 km, 66.7° (Epoch: 24 February)

Event Time Altitude Azimuth Distance (km) Brightness Sun altitude
Rises 05:35:13 0° 337° (NNW) 3,160 ? -4.9°
Reaches altitude 10° 05:37:41 10° 336° (NNW) 2,187 ? -4.3°
Maximum altitude 05:42:38 79° 250° (WSW) 682 ? -3.2°
Drops below altitude 10° 05:47:08 10° 164° (SSE) 2,001 ? -2.1°
Sets 05:49:19 0° 162° (SSE) 2,870 ? -1.6°
